Location: Detroit
(42.3310°N, 83.0460°W)
Time: 00:44:29
(UTC-05:00)

Explorer 11/Cluster Stage 4 - Visible Passes

Search period start: 06 February 2023 00:00
Search period end: 16 February 2023 00:00
Orbit: 466 x 1244 km, 28.8° (Epoch: 05 February)

Date Brightness Start Highest point End Pass type
(mag) Time Alt. Az. Time Alt. Az. Time Alt. Az.
06 Feb 9.0 04:16:58 22° SSE 04:16:58 22° SSE 04:21:50 10° ESE visible
06 Feb 8.7 05:58:56 15° SW 06:04:06 30° S 06:10:55 10° ESE visible
07 Feb 9.1 04:04:28 20° SE 04:04:28 20° SE 04:08:16 10° ESE visible
07 Feb 8.6 05:46:26 19° SW 05:50:30 30° S 05:57:17 10° ESE visible
08 Feb 9.3 03:51:58 18° SE 03:51:58 18° SE 03:54:40 10° ESE visible
08 Feb 8.5 05:33:55 22° SW 05:36:55 29° S 05:43:37 10° SE visible
09 Feb 9.4 03:39:25 15° SE 03:39:25 15° SE 03:41:01 10° ESE visible
09 Feb 8.4 05:21:23 25° SSW 05:23:20 28° S 05:29:53 10° SE visible
09 Feb 9.1 07:05:55 10° WSW 07:11:28 21° SSW 07:17:14 10° SSE visible
10 Feb 9.7 03:26:53 11° ESE 03:26:53 11° ESE 03:27:20 10° ESE visible
10 Feb 8.4 05:08:51 26° SSW 05:09:46 27° S 05:16:07 10° SE visible
10 Feb 9.1 06:52:41 10° WSW 06:57:51 20° SSW 07:03:18 10° SSE visible
11 Feb 8.5 04:56:19 26° S 04:56:19 26° S 05:02:18 10° SE visible
11 Feb 9.1 06:39:32 10° WSW 06:44:15 18° SSW 06:49:15 10° SSE visible
12 Feb 8.6 04:43:48 23° S 04:43:48 23° S 04:48:26 10° SE visible
12 Feb 9.1 06:26:29 10° SW 06:30:39 16° SSW 06:35:05 10° SSE visible
13 Feb 8.9 04:31:19 19° SSE 04:31:19 19° SSE 04:34:31 10° SE visible
13 Feb 9.0 06:13:36 10° SW 06:17:04 14° SSW 06:20:45 10° S visible
14 Feb 9.2 04:18:52 15° SSE 04:18:52 15° SSE 04:20:34 10° SE visible
14 Feb 9.1 06:01:00 10° SW 06:03:30 12° SSW 06:06:06 10° S visible
15 Feb 9.5 04:06:28 10° SSE 04:06:28 10° SSE 04:06:32 10° SSE visible
